EZS5835 LFSB-EGPH

Flight info

Callsign EZS5835
Flight time 1h 46m
Altitude 38000
Route TORPA T10 ROBIR REKLA RLP ROTSI KOTUN AMAXA VESAN RATUK SOVAT L613 LEHOC INPIP
Aircraft A320/M-SDE3FGHIRWY/LB1

Departure

Time 2026-04-26 17:04
Airport EuroAirport Basel–Mulhouse–Freiburg (LFSB)

Arrival

Time 2026-04-26 18:50
Airport Edinburgh Airport (EGPH)
Time Latitude Longitude Altitude Speed Heading
2026-04-26 16:33 47.59965 7.52944 890 ft 0 kts 155°
2026-04-26 16:52 47.59977 7.52936 890 ft 2 kts 155°
2026-04-26 16:53 47.59992 7.52927 890 ft 2 kts 137°
2026-04-26 16:53 47.60005 7.52909 890 ft 2 kts 136°
2026-04-26 16:53 47.60017 7.52892 890 ft 2 kts 103°
2026-04-26 16:53 47.60022 7.52869 890 ft 2 kts 117°
2026-04-26 16:54 47.60030 7.52846 890 ft 2 kts 117°
2026-04-26 16:54 47.60034 7.52833 890 ft 0 kts 86°
2026-04-26 16:55 47.60034 7.52835 890 ft 2 kts 83°
2026-04-26 16:55 47.60048 7.52858 890 ft 6 kts 41°
2026-04-26 16:56 47.60105 7.52776 890 ft 8 kts 246°
2026-04-26 16:56 47.60083 7.52707 890 ft 7 kts 245°
2026-04-26 16:56 47.60064 7.52643 890 ft 7 kts 245°
2026-04-26 16:57 47.60033 7.52596 890 ft 7 kts 192°
2026-04-26 16:57 47.59989 7.52617 890 ft 7 kts 153°
2026-04-26 16:57 47.59891 7.52684 890 ft 8 kts 154°
2026-04-26 16:58 47.59839 7.52721 890 ft 8 kts 155°
2026-04-26 16:58 47.59805 7.52744 890 ft 8 kts 155°
2026-04-26 16:58 47.59674 7.52835 890 ft 9 kts 155°
2026-04-26 16:59 47.59614 7.52877 890 ft 10 kts 154°
2026-04-26 16:59 47.59507 7.52908 890 ft 7 kts 224°
2026-04-26 17:00 47.59403 7.52927 890 ft 9 kts 154°
2026-04-26 17:00 47.59281 7.53012 890 ft 10 kts 154°
2026-04-26 17:00 47.59221 7.53054 890 ft 9 kts 155°
2026-04-26 17:01 47.59182 7.53122 890 ft 9 kts 100°
2026-04-26 17:01 47.59176 7.53207 890 ft 8 kts 113°
2026-04-26 17:01 47.59146 7.53275 890 ft 8 kts 104°
2026-04-26 17:01 47.59159 7.53384 890 ft 12 kts 77°
2026-04-26 17:02 47.59179 7.53510 890 ft 13 kts 77°
2026-04-26 17:02 47.59201 7.53653 890 ft 15 kts 77°
2026-04-26 17:02 47.59227 7.53817 890 ft 17 kts 77°
2026-04-26 17:02 47.59240 7.53963 890 ft 12 kts 112°
2026-04-26 17:03 47.59192 7.54054 890 ft 9 kts 157°
2026-04-26 17:03 47.59155 7.53997 890 ft 8 kts 259°
2026-04-26 17:03 47.59142 7.53910 890 ft 15 kts 257°
2026-04-26 17:03 47.59054 7.53350 891 ft 102 kts 257°
2026-04-26 17:04 47.58849 7.51934 951 ft 171 kts 263°
2026-04-26 17:04 47.58581 7.50115 1705 ft 186 kts 260°
2026-04-26 17:04 47.58269 7.48223 2432 ft 197 kts 260°
2026-04-26 17:04 47.57985 7.46128 2790 ft 219 kts 262°
2026-04-26 17:05 47.57709 7.43764 3180 ft 247 kts 263°
2026-04-26 17:05 47.57406 7.41145 3759 ft 267 kts 262°
2026-04-26 17:05 47.57076 7.38394 4649 ft 274 kts 260°
2026-04-26 17:05 47.56731 7.35574 5554 ft 281 kts 259°
2026-04-26 17:06 47.56383 7.32753 6488 ft 285 kts 259°
2026-04-26 17:06 47.56023 7.29860 7451 ft 286 kts 260°
2026-04-26 17:06 47.55660 7.26955 8434 ft 286 kts 260°
2026-04-26 17:06 47.55299 7.24061 9443 ft 286 kts 260°
2026-04-26 17:07 47.54941 7.21167 10426 ft 285 kts 260°
2026-04-26 17:07 47.54576 7.18217 10961 ft 302 kts 260°
2026-04-26 17:07 47.54183 7.15037 11236 ft 326 kts 260°
2026-04-26 17:07 47.53759 7.11618 11451 ft 349 kts 260°
2026-04-26 17:08 47.53303 7.07965 11586 ft 372 kts 260°
2026-04-26 17:08 47.52819 7.04107 11933 ft 386 kts 260°
2026-04-26 17:08 47.52325 7.00176 12577 ft 391 kts 260°
2026-04-26 17:08 47.51823 6.96211 13271 ft 393 kts 260°
2026-04-26 17:09 47.51318 6.92218 13904 ft 397 kts 260°
2026-04-26 17:09 47.50979 6.89542 14271 ft 400 kts 260°
2026-04-26 17:09 47.50289 6.84105 15024 ft 404 kts 260°
2026-04-26 17:09 47.49766 6.79999 15579 ft 407 kts 260°
2026-04-26 17:10 47.49235 6.75874 16119 ft 410 kts 260°
2026-04-26 17:10 47.48703 6.71763 16656 ft 413 kts 261°
2026-04-26 17:10 47.48227 6.67563 17179 ft 415 kts 265°
2026-04-26 17:10 47.48147 6.63278 17668 ft 418 kts 274°
2026-04-26 17:11 47.48437 6.58985 18183 ft 420 kts 277°
2026-04-26 17:11 47.48760 6.54669 18666 ft 423 kts 277°
2026-04-26 17:11 47.49079 6.50327 19105 ft 426 kts 277°
2026-04-26 17:11 47.49394 6.45958 19544 ft 428 kts 277°
2026-04-26 17:12 47.50006 6.37144 20390 ft 433 kts 277°
2026-04-26 17:12 47.50314 6.32706 20798 ft 435 kts 277°
2026-04-26 17:13 47.50932 6.23808 21585 ft 440 kts 277°
2026-04-26 17:13 47.51243 6.19297 21964 ft 442 kts 277°
2026-04-26 17:13 47.51863 6.10199 22714 ft 447 kts 277°
2026-04-26 17:14 47.52174 6.05620 23069 ft 449 kts 277°
2026-04-26 17:14 47.52802 5.96387 23769 ft 453 kts 276°
2026-04-26 17:14 47.53218 5.91756 24054 ft 454 kts 282°
2026-04-26 17:15 47.55458 5.83038 24636 ft 455 kts 301°
2026-04-26 17:15 47.57264 5.79193 24936 ft 456 kts 309°
2026-04-26 17:15 47.59401 5.75705 25220 ft 458 kts 313°
2026-04-26 17:16 47.61565 5.72236 25534 ft 458 kts 313°
2026-04-26 17:16 47.63685 5.68818 25937 ft 456 kts 313°
2026-04-26 17:16 47.65822 5.65352 26362 ft 454 kts 313°
2026-04-26 17:16 47.67943 5.61903 26829 ft 452 kts 313°
2026-04-26 17:17 47.70060 5.58465 27283 ft 449 kts 313°
2026-04-26 17:17 47.72166 5.55049 27730 ft 447 kts 313°
2026-04-26 17:17 47.74264 5.51648 28181 ft 445 kts 313°
2026-04-26 17:17 47.76352 5.48261 28635 ft 444 kts 313°
2026-04-26 17:18 47.78434 5.44874 29053 ft 442 kts 313°
2026-04-26 17:18 47.80505 5.41498 29493 ft 441 kts 313°
2026-04-26 17:18 47.82566 5.38135 29957 ft 439 kts 313°
2026-04-26 17:18 47.84619 5.34781 30387 ft 437 kts 313°
2026-04-26 17:19 47.88693 5.28093 31154 ft 434 kts 313°
2026-04-26 17:19 47.90719 5.24767 31554 ft 432 kts 313°
2026-04-26 17:19 47.92715 5.21492 31941 ft 431 kts 313°
2026-04-26 17:20 47.94727 5.18189 32321 ft 429 kts 313°
2026-04-26 17:20 47.95406 5.17075 32443 ft 429 kts 313°
2026-04-26 17:20 47.98729 5.11607 33077 ft 427 kts 313°
2026-04-26 17:20 48.00719 5.08330 33441 ft 426 kts 313°
2026-04-26 17:21 48.02703 5.05057 33802 ft 425 kts 313°
2026-04-26 17:21 48.04681 5.01785 34164 ft 424 kts 313°
2026-04-26 17:21 48.06651 4.98521 34485 ft 423 kts 313°
2026-04-26 17:21 48.08621 4.95254 34791 ft 422 kts 313°
2026-04-26 17:22 48.10584 4.91988 35097 ft 422 kts 313°
2026-04-26 17:22 48.12541 4.88730 35405 ft 421 kts 313°
2026-04-26 17:22 48.13842 4.86561 35597 ft 421 kts 313°
2026-04-26 17:22 48.15797 4.83299 35865 ft 421 kts 313°
2026-04-26 17:23 48.17752 4.80039 36129 ft 420 kts 313°
2026-04-26 17:23 48.19705 4.76778 36390 ft 420 kts 312°
2026-04-26 17:23 48.21655 4.73518 36650 ft 420 kts 312°
2026-04-26 17:23 48.24240 4.69187 36942 ft 420 kts 312°
2026-04-26 17:24 48.25555 4.66979 37091 ft 420 kts 312°
2026-04-26 17:24 48.27504 4.63705 37304 ft 421 kts 312°
2026-04-26 17:24 48.29435 4.60461 37522 ft 421 kts 312°
2026-04-26 17:24 48.31389 4.57179 37755 ft 420 kts 312°
2026-04-26 17:25 48.33334 4.53904 37975 ft 420 kts 312°
2026-04-26 17:25 48.35278 4.50623 38169 ft 421 kts 312°
2026-04-26 17:25 48.39187 4.44012 38199 ft 423 kts 312°
2026-04-26 17:26 48.43104 4.37387 38200 ft 424 kts 312°
2026-04-26 17:26 48.47019 4.30755 38197 ft 424 kts 311°
2026-04-26 17:27 48.50937 4.24076 38200 ft 425 kts 311°
2026-04-26 17:27 48.54855 4.17375 38214 ft 426 kts 311°
2026-04-26 17:28 48.58769 4.10665 38231 ft 426 kts 311°
2026-04-26 17:28 48.62683 4.03946 38230 ft 426 kts 311°
2026-04-26 17:29 48.65934 3.98354 38226 ft 426 kts 311°
2026-04-26 17:29 48.70475 3.90517 38225 ft 426 kts 311°
2026-04-26 17:30 48.74847 3.84493 38225 ft 426 kts 323°
2026-04-26 17:30 48.79671 3.79261 38225 ft 426 kts 323°
2026-04-26 17:31 48.84484 3.73988 38225 ft 426 kts 323°
2026-04-26 17:31 48.89290 3.68710 38227 ft 426 kts 323°
2026-04-26 17:32 48.94074 3.63454 38223 ft 426 kts 323°
2026-04-26 17:32 48.98888 3.58150 38224 ft 426 kts 323°
2026-04-26 17:33 49.03693 3.52855 38234 ft 426 kts 323°
2026-04-26 17:34 49.10900 3.44885 38221 ft 427 kts 323°
2026-04-26 17:34 49.15699 3.39543 38221 ft 427 kts 323°
2026-04-26 17:35 49.20477 3.34217 38215 ft 427 kts 323°
2026-04-26 17:35 49.25280 3.28855 38219 ft 428 kts 323°
2026-04-26 17:36 49.30095 3.23482 38234 ft 428 kts 322°
2026-04-26 17:36 49.34897 3.18087 38236 ft 428 kts 322°
2026-04-26 17:37 49.39696 3.12680 38238 ft 428 kts 322°
2026-04-26 17:37 49.44468 3.07306 38229 ft 428 kts 322°
2026-04-26 17:38 49.51668 2.99168 38239 ft 428 kts 322°
2026-04-26 17:38 49.56470 2.93726 38239 ft 428 kts 322°
2026-04-26 17:39 49.61271 2.88258 38240 ft 429 kts 322°
2026-04-26 17:39 49.66071 2.82781 38240 ft 429 kts 322°
2026-04-26 17:40 49.70056 2.78227 38244 ft 429 kts 322°
2026-04-26 17:40 49.75662 2.71808 38254 ft 429 kts 322°
2026-04-26 17:41 49.80465 2.66340 38241 ft 429 kts 322°
2026-04-26 17:41 49.85328 2.60980 38244 ft 429 kts 323°
2026-04-26 17:42 49.90196 2.55612 38242 ft 430 kts 323°
2026-04-26 17:42 49.95027 2.50236 38262 ft 430 kts 322°
2026-04-26 17:43 49.99891 2.44804 38258 ft 430 kts 322°
2026-04-26 17:43 50.04748 2.39362 38256 ft 430 kts 322°
2026-04-26 17:44 50.09601 2.33908 38258 ft 430 kts 322°
2026-04-26 17:44 50.14457 2.28440 38255 ft 430 kts 322°
2026-04-26 17:45 50.19274 2.23002 38262 ft 430 kts 322°
2026-04-26 17:45 50.24125 2.17506 38265 ft 431 kts 322°
2026-04-26 17:46 50.28979 2.11995 38261 ft 431 kts 322°
2026-04-26 17:46 50.33835 2.06479 38267 ft 431 kts 322°
2026-04-26 17:47 50.37854 2.01846 38268 ft 431 kts 320°
2026-04-26 17:47 50.43213 1.94781 38286 ft 430 kts 316°
2026-04-26 17:48 50.47655 1.88488 38283 ft 430 kts 316°
2026-04-26 17:48 50.52130 1.82234 38278 ft 431 kts 317°
2026-04-26 17:49 50.56647 1.76047 38149 ft 431 kts 317°
2026-04-26 17:49 50.58912 1.72959 38297 ft 429 kts 317°
2026-04-26 17:49 50.61166 1.69876 38581 ft 428 kts 317°
2026-04-26 17:50 50.63375 1.66843 38883 ft 426 kts 317°
2026-04-26 17:50 50.65604 1.63777 39129 ft 425 kts 317°
2026-04-26 17:50 50.67832 1.60706 39249 ft 426 kts 317°
2026-04-26 17:50 50.70065 1.57614 39291 ft 429 kts 317°
2026-04-26 17:51 50.74560 1.51364 39291 ft 430 kts 317°
2026-04-26 17:51 50.79052 1.45110 39293 ft 430 kts 317°
2026-04-26 17:52 50.83543 1.38859 39295 ft 430 kts 316°
2026-04-26 17:52 50.88014 1.32618 39308 ft 431 kts 316°
2026-04-26 17:53 50.92515 1.26330 39300 ft 431 kts 316°
2026-04-26 17:54 50.99263 1.16858 39301 ft 431 kts 316°
2026-04-26 17:54 51.03760 1.10516 39302 ft 432 kts 316°
2026-04-26 17:55 51.08435 1.04520 39305 ft 433 kts 323°
2026-04-26 17:55 51.13363 0.99080 39309 ft 434 kts 323°
2026-04-26 17:56 51.18325 0.93590 39303 ft 434 kts 323°
2026-04-26 17:57 51.28266 0.82532 39290 ft 436 kts 322°
2026-04-26 17:57 51.33235 0.76971 39328 ft 436 kts 322°
2026-04-26 17:58 51.43198 0.65809 39341 ft 437 kts 322°
2026-04-26 17:59 51.50624 0.57431 39342 ft 437 kts 322°
2026-04-26 17:59 51.55600 0.51808 39340 ft 436 kts 322°
2026-04-26 18:00 51.60566 0.46183 39340 ft 437 kts 322°
2026-04-26 18:00 51.65530 0.40538 39337 ft 437 kts 322°
2026-04-26 18:01 51.70495 0.34874 39319 ft 437 kts 322°
2026-04-26 18:01 51.75459 0.29204 39318 ft 437 kts 322°
2026-04-26 18:02 51.78741 0.25445 39317 ft 437 kts 322°
2026-04-26 18:02 51.85338 0.17874 39328 ft 437 kts 322°
2026-04-26 18:03 51.90291 0.12157 39323 ft 437 kts 322°
2026-04-26 18:03 51.95234 0.06435 39319 ft 437 kts 322°
2026-04-26 18:04 52.00180 0.00700 39317 ft 437 kts 321°
2026-04-26 18:05 52.08050 -0.06870 39308 ft 441 kts 328°
2026-04-26 18:05 52.13461 -0.11600 39303 ft 441 kts 328°
2026-04-26 18:06 52.18867 -0.16345 39304 ft 442 kts 328°
2026-04-26 18:06 52.24244 -0.21063 39304 ft 442 kts 328°
2026-04-26 18:07 52.29661 -0.25841 39317 ft 442 kts 328°
2026-04-26 18:07 52.35075 -0.30638 39311 ft 442 kts 328°
2026-04-26 18:08 52.40486 -0.35452 39308 ft 442 kts 328°
2026-04-26 18:08 52.45896 -0.40272 39302 ft 442 kts 328°
2026-04-26 18:09 52.51275 -0.45084 39300 ft 442 kts 328°
2026-04-26 18:09 52.56691 -0.49947 39305 ft 442 kts 328°
2026-04-26 18:10 52.62087 -0.54793 39298 ft 442 kts 328°
2026-04-26 18:10 52.66578 -0.58816 39300 ft 442 kts 328°
2026-04-26 18:11 52.71970 -0.63671 39299 ft 441 kts 328°
2026-04-26 18:11 52.77346 -0.68561 39332 ft 441 kts 328°
2026-04-26 18:12 52.82723 -0.73454 39319 ft 441 kts 328°
2026-04-26 18:12 52.88113 -0.78358 39321 ft 441 kts 328°
2026-04-26 18:13 52.93459 -0.83236 39320 ft 441 kts 328°
2026-04-26 18:13 52.98841 -0.88167 39315 ft 442 kts 328°
2026-04-26 18:14 53.04227 -0.93104 39320 ft 442 kts 328°
2026-04-26 18:14 53.09617 -0.98056 39309 ft 442 kts 327°
2026-04-26 18:15 53.14990 -1.03021 39305 ft 442 kts 327°
2026-04-26 18:15 53.20367 -1.08007 39300 ft 442 kts 327°
2026-04-26 18:16 53.25745 -1.13002 39313 ft 443 kts 327°
2026-04-26 18:16 53.33785 -1.20492 39305 ft 442 kts 327°
2026-04-26 18:17 53.39150 -1.25504 38791 ft 441 kts 327°
2026-04-26 18:17 53.41821 -1.28002 38337 ft 439 kts 327°
2026-04-26 18:17 53.44490 -1.30506 38254 ft 440 kts 327°
2026-04-26 18:18 53.49843 -1.35561 38272 ft 442 kts 327°
2026-04-26 18:18 53.55203 -1.40642 38266 ft 442 kts 327°
2026-04-26 18:19 53.60555 -1.45723 38268 ft 442 kts 327°
2026-04-26 18:19 53.65913 -1.50813 38270 ft 442 kts 327°
2026-04-26 18:20 53.71270 -1.55919 38275 ft 442 kts 326°
2026-04-26 18:20 53.75386 -1.60904 38296 ft 435 kts 314°
2026-04-26 18:21 53.80627 -1.68962 38289 ft 436 kts 314°
2026-04-26 18:21 53.85118 -1.75871 38281 ft 436 kts 314°
2026-04-26 18:22 53.89607 -1.82800 38281 ft 437 kts 314°
2026-04-26 18:22 53.94087 -1.89749 38276 ft 436 kts 314°
2026-04-26 18:23 53.98544 -1.96679 38289 ft 437 kts 314°
2026-04-26 18:23 54.03249 -2.03244 38277 ft 442 kts 324°
2026-04-26 18:24 54.08568 -2.08549 38272 ft 443 kts 325°
2026-04-26 18:24 54.13877 -2.13867 38286 ft 443 kts 325°
2026-04-26 18:25 54.19193 -2.19231 38277 ft 444 kts 325°
2026-04-26 18:25 54.24508 -2.24606 38290 ft 444 kts 325°
2026-04-26 18:26 54.29834 -2.29997 38287 ft 444 kts 325°
2026-04-26 18:26 54.35114 -2.35359 38284 ft 444 kts 325°
2026-04-26 18:27 54.40433 -2.40773 38283 ft 444 kts 324°
2026-04-26 18:27 54.45785 -2.46080 38277 ft 445 kts 328°
2026-04-26 18:28 54.51362 -2.50785 38291 ft 447 kts 330°
2026-04-26 18:28 54.57015 -2.55270 38019 ft 447 kts 330°
2026-04-26 18:29 54.59831 -2.57550 37422 ft 450 kts 329°
2026-04-26 18:29 54.62660 -2.59900 36562 ft 451 kts 329°
2026-04-26 18:29 54.65442 -2.62252 35808 ft 451 kts 328°
2026-04-26 18:29 54.68257 -2.64648 35071 ft 451 kts 328°
2026-04-26 18:30 54.71071 -2.67050 34343 ft 450 kts 327°
2026-04-26 18:30 54.73876 -2.69443 33548 ft 450 kts 327°
2026-04-26 18:30 54.76690 -2.71839 32732 ft 451 kts 328°
2026-04-26 18:30 54.79528 -2.74252 31856 ft 455 kts 328°
2026-04-26 18:31 54.82386 -2.76682 31023 ft 459 kts 328°
2026-04-26 18:31 54.85258 -2.79127 30174 ft 462 kts 329°
2026-04-26 18:31 54.88157 -2.81596 29244 ft 465 kts 329°
2026-04-26 18:31 54.91061 -2.84072 28350 ft 466 kts 329°
2026-04-26 18:32 54.93977 -2.86562 27449 ft 467 kts 330°
2026-04-26 18:32 54.96894 -2.89063 26549 ft 468 kts 330°
2026-04-26 18:32 54.99811 -2.91572 25689 ft 468 kts 330°
2026-04-26 18:32 55.02730 -2.94090 24840 ft 468 kts 330°
2026-04-26 18:33 55.05638 -2.96603 24006 ft 464 kts 331°
2026-04-26 18:33 55.08512 -2.99085 23076 ft 458 kts 331°
2026-04-26 18:33 55.11356 -3.01541 22137 ft 453 kts 331°
2026-04-26 18:33 55.14167 -3.03970 21220 ft 448 kts 331°
2026-04-26 18:34 55.16948 -3.06377 20335 ft 444 kts 331°
2026-04-26 18:34 55.19669 -3.08740 19488 ft 440 kts 331°
2026-04-26 18:34 55.22435 -3.11150 18642 ft 437 kts 331°
2026-04-26 18:34 55.25097 -3.13469 17728 ft 424 kts 331°
2026-04-26 18:35 55.27677 -3.15712 16806 ft 404 kts 331°
2026-04-26 18:35 55.30193 -3.17902 15906 ft 397 kts 331°
2026-04-26 18:35 55.32667 -3.20066 15041 ft 399 kts 331°
2026-04-26 18:35 55.35154 -3.22252 14192 ft 400 kts 331°
2026-04-26 18:36 55.37611 -3.24417 13269 ft 400 kts 330°
2026-04-26 18:36 55.40060 -3.26572 12367 ft 385 kts 330°
2026-04-26 18:36 55.42406 -3.28630 11565 ft 367 kts 330°
2026-04-26 18:36 55.44577 -3.30532 11524 ft 331 kts 330°
2026-04-26 18:37 55.46553 -3.32268 11275 ft 308 kts 329°
2026-04-26 18:37 55.48419 -3.33916 10933 ft 293 kts 330°
2026-04-26 18:37 55.50146 -3.35616 10593 ft 275 kts 320°
2026-04-26 18:37 55.51581 -3.37717 10257 ft 262 kts 316°
2026-04-26 18:38 55.52949 -3.39751 9915 ft 252 kts 316°
2026-04-26 18:38 55.54265 -3.41698 9559 ft 242 kts 316°
2026-04-26 18:38 55.55553 -3.43606 9227 ft 241 kts 316°
2026-04-26 18:38 55.56831 -3.45510 8924 ft 240 kts 316°
2026-04-26 18:39 55.58085 -3.47378 8664 ft 237 kts 316°
2026-04-26 18:39 55.59342 -3.49247 8407 ft 235 kts 316°
2026-04-26 18:39 55.60587 -3.51101 8157 ft 233 kts 316°
2026-04-26 18:39 55.61820 -3.52940 7896 ft 231 kts 316°
2026-04-26 18:40 55.63044 -3.54770 7636 ft 230 kts 316°
2026-04-26 18:40 55.64260 -3.56594 7390 ft 229 kts 316°
2026-04-26 18:40 55.65474 -3.58413 7140 ft 228 kts 316°
2026-04-26 18:40 55.66689 -3.60231 6898 ft 228 kts 316°
2026-04-26 18:41 55.67897 -3.62038 6655 ft 227 kts 316°
2026-04-26 18:41 55.69101 -3.63840 6400 ft 226 kts 317°
2026-04-26 18:41 55.70305 -3.65613 6134 ft 225 kts 317°
2026-04-26 18:41 55.71516 -3.67364 5867 ft 223 kts 318°
2026-04-26 18:42 55.72704 -3.69071 5624 ft 221 kts 317°
2026-04-26 18:42 55.73894 -3.70787 5373 ft 220 kts 318°
2026-04-26 18:42 55.75075 -3.72496 5120 ft 218 kts 318°
2026-04-26 18:42 55.76204 -3.74261 4863 ft 215 kts 313°
2026-04-26 18:43 55.77268 -3.76125 4598 ft 214 kts 311°
2026-04-26 18:43 55.78441 -3.77738 4331 ft 217 kts 334°
2026-04-26 18:43 55.79938 -3.78063 4084 ft 222 kts
2026-04-26 18:43 55.81290 -3.76855 3997 ft 217 kts 41°
2026-04-26 18:44 55.82163 -3.74780 4032 ft 206 kts 58°
2026-04-26 18:44 55.82908 -3.72615 4020 ft 204 kts 58°
2026-04-26 18:44 55.83622 -3.70544 4016 ft 190 kts 58°
2026-04-26 18:44 55.84301 -3.68571 3930 ft 184 kts 58°
2026-04-26 18:45 55.84966 -3.66638 3734 ft 182 kts 58°
2026-04-26 18:45 55.85624 -3.64720 3513 ft 182 kts 58°
2026-04-26 18:45 55.86276 -3.62820 3269 ft 178 kts 58°
2026-04-26 18:45 55.86905 -3.60986 3044 ft 167 kts 57°
2026-04-26 18:46 55.87488 -3.59284 2817 ft 157 kts 58°
2026-04-26 18:46 55.88047 -3.57651 2591 ft 153 kts 57°
2026-04-26 18:46 55.88597 -3.56043 2399 ft 151 kts 57°
2026-04-26 18:46 55.89136 -3.54467 2198 ft 150 kts 56°
2026-04-26 18:47 55.89676 -3.52886 1993 ft 149 kts 56°
2026-04-26 18:47 55.90213 -3.51314 1790 ft 148 kts 56°
2026-04-26 18:47 55.90748 -3.49746 1588 ft 148 kts 57°
2026-04-26 18:47 55.91283 -3.48177 1384 ft 149 kts 56°
2026-04-26 18:48 55.91812 -3.46623 1182 ft 146 kts 56°
2026-04-26 18:48 55.92337 -3.45076 998 ft 144 kts 57°
2026-04-26 18:48 55.92843 -3.43570 836 ft 139 kts 55°
2026-04-26 18:48 55.93353 -3.42131 643 ft 134 kts 57°
2026-04-26 18:49 55.93835 -3.40722 420 ft 132 kts 58°
2026-04-26 18:49 55.94304 -3.39329 243 ft 129 kts 58°
2026-04-26 18:49 55.94757 -3.37973 114 ft 119 kts 58°
2026-04-26 18:49 55.95097 -3.36959 114 ft 70 kts 59°
2026-04-26 18:50 55.95304 -3.36348 111 ft 52 kts 58°
2026-04-26 18:50 55.95473 -3.35853 112 ft 43 kts 59°
2026-04-26 18:50 55.95565 -3.35557 113 ft 17 kts 83°
2026-04-26 18:50 55.95506 -3.35447 114 ft 9 kts 149°
2026-04-26 18:51 55.95494 -3.35435 113 ft 0 kts 149°
2026-04-26 18:52 55.95480 -3.35420 114 ft 3 kts 149°
2026-04-26 18:52 55.95436 -3.35413 116 ft 9 kts 205°
2026-04-26 18:53 55.95400 -3.35495 113 ft 8 kts 239°
2026-04-26 18:53 55.95373 -3.35578 115 ft 7 kts 239°
2026-04-26 18:53 55.95347 -3.35655 113 ft 9 kts 238°
2026-04-26 18:53 55.95310 -3.35762 115 ft 10 kts 239°
2026-04-26 18:54 55.95276 -3.35862 116 ft 9 kts 239°
2026-04-26 18:54 55.95238 -3.35973 114 ft 12 kts 239°
2026-04-26 18:54 55.95198 -3.36090 114 ft 10 kts 239°
2026-04-26 18:54 55.95157 -3.36170 115 ft 8 kts 196°
2026-04-26 18:55 55.95116 -3.36120 115 ft 8 kts 110°
2026-04-26 18:55 55.95099 -3.36036 116 ft 6 kts 109°
2026-04-26 18:55 55.95062 -3.36034 116 ft 8 kts 212°
2026-04-26 18:55 55.95036 -3.36092 113 ft 2 kts 232°